Location: Wien
(48.2082°N, 16.3738°E)
Time: 15:10:06
(UTC+02:00)

Amateur Radio Satellites - All Passes

Search period start: 17 October 2017 14:40
Search period end: 18 October 2017 14:40
Location: Wien, 48.2082°N, 16.3738°E

Satellite Date Start Highest point End Downlink Frequencies (MHz)
Time Altitude Azimuth
UKube-1 17 Oct 14:40:33 14:44:46 48° 100° (E) 14:48:57 .
ISS 17 Oct 15:03:03 15:06:12 43° 1° (N) 15:09:21 437.550
BEESAT 2 17 Oct 15:10:08 15:14:06 57° 312° (NW) 15:18:07 435.950
PCSat 17 Oct 15:15:06 15:17:22 12° 17° (NNE) 15:19:37 145.827
50 SAT 17 Oct 15:22:20 15:24:59 22° 293° (WNW) 15:27:37 437.505
Gurwin Techsat 1B 17 Oct 15:33:38 15:36:04 13° 274° (W) 15:38:30 435.225
AO-7 17 Oct 15:35:07 15:43:24 74° 253° (WSW) 15:51:44 .
BEESAT 3 17 Oct 15:37:36 15:40:25 18° 328° (NNW) 15:43:15 437.485
DX 1 17 Oct 15:45:07 15:48:48 27° 296° (WNW) 15:52:29 434.975-435.025
Tancredo 1 17 Oct 15:46:17 15:47:54 23° 213° (SSW) 15:49:30 437.200
SO-50 17 Oct 15:49:41 15:54:11 52° 46° (NE) 15:58:43 436.795
ITAMSAT 1 17 Oct 15:52:27 15:57:36 67° 257° (WSW) 16:02:49 435.822/435.867
ITUPSAT 1 17 Oct 15:56:01 16:00:33 40° 98° (E) 16:05:03 437.325
MOZHAYETS 4 17 Oct 16:01:32 16:06:02 52° 100° (E) 16:10:30
CUBESAT XI-V 17 Oct 16:04:16 16:06:46 14° 88° (E) 16:09:15 437.345
AO-85 17 Oct 16:05:54 16:09:21 29° 321° (NW) 16:12:55 145.980
BEESAT 17 Oct 16:13:56 16:18:42 60° 102° (ESE) 16:23:25 436.000
nSIGHT-1 17 Oct 16:16:02 16:19:14 65° 17° (NNE) 16:22:26 .
UKube-1 17 Oct 16:17:15 16:20:29 21° 298° (WNW) 16:23:41 .
DOVE 4 17 Oct 16:31:00 16:34:47 35° 68° (ENE) 16:38:44 437.250
ISS 17 Oct 16:39:39 16:42:56 79° 20° (NNE) 16:46:12 437.550
BEESAT 2 17 Oct 16:50:29 16:52:41 14° 334° (NNW) 16:54:54 435.950
PCSat 17 Oct 16:57:41 17:02:33 32° 41° (NE) 17:07:23 145.827
LilacSat-2 17 Oct 17:09:17 17:12:20 23° 66° (ENE) 17:15:22 437.200
XW-2F 17 Oct 17:12:01 17:14:56 21° 65° (ENE) 17:17:51 145.980 - 146.000
KAITUO 1B 17 Oct 17:16:46 17:19:28 19° 65° (ENE) 17:22:10 145.475/437.950
XW-2D 17 Oct 17:21:01 17:24:18 28° 68° (ENE) 17:27:37 145.860 - 145.880
HO-68 17 Oct 17:22:23 17:27:56 25° 52° (NE) 17:33:31 435.675
CUTE 1.7 + AOD 2 17 Oct 17:30:12 17:30:56 10° 57° (ENE) 17:31:42 437.475
SO-50 17 Oct 17:30:35 17:34:24 26° 244° (WSW) 17:38:15 436.795
AO-7 17 Oct 17:32:44 17:37:37 17° 274° (W) 17:42:33 .
XW-2B 17 Oct 17:34:03 17:37:35 37° 70° (ENE) 17:41:07 145.730 - 145.750
ITUPSAT 1 17 Oct 17:34:07 17:38:14 29° 296° (WNW) 17:42:20 437.325
CUTE-I 17 Oct 17:35:45 17:40:44 44° 67° (ENE) 17:45:47 437.470
NUDT-PHONESAT 17 Oct 17:36:23 17:39:37 29° 68° (ENE) 17:42:52 437.300
MOZHAYETS 4 17 Oct 17:39:24 17:42:51 21° 298° (WNW) 17:46:17
CUBESAT XI-V 17 Oct 17:40:04 17:44:40 73° 285° (WNW) 17:49:14 437.345
AO-85 17 Oct 17:50:50 17:51:07 10° 345° (NNW) 17:51:25 145.980
CUBEBUG 2 17 Oct 17:51:59 17:54:03 13° 56° (NE) 17:56:09 437.445
nSIGHT-1 17 Oct 17:52:30 17:55:22 30° 216° (SW) 17:58:14 .
BEESAT 17 Oct 17:52:33 17:56:03 21° 300° (WNW) 17:59:34 436.000
KKS-1 17 Oct 17:54:45 17:59:09 50° 100° (E) 18:03:30 437.445
XW-2C 17 Oct 17:56:46 18:00:34 70° 75° (ENE) 18:04:21 145.795 - 145.815
DOVE 4 17 Oct 18:09:10 18:12:36 25° 267° (W) 18:16:09 437.250
ISS 17 Oct 18:16:29 18:19:09 23° 219° (SW) 18:21:49 437.550
XW-2A 17 Oct 18:33:35 18:35:22 14° 63° (ENE) 18:37:08 145.665 - 145.685
UWE-3 17 Oct 18:36:09 18:39:26 19° 61° (ENE) 18:42:44 435.000/436.395/437.385
STARS 17 Oct 18:37:41 18:42:05 58° 102° (ESE) 18:46:27 437.465
PCSat 17 Oct 18:40:56 18:46:15 57° 242° (WSW) 18:51:32 145.827
LilacSat-2 17 Oct 18:42:58 18:46:27 33° 263° (W) 18:49:57 437.200
XW-2F 17 Oct 18:45:22 18:48:52 34° 263° (W) 18:52:21 145.980 - 146.000
KAITUO 1B 17 Oct 18:49:42 18:53:13 38° 262° (W) 18:56:44 145.475/437.950
XW-2D 17 Oct 18:55:16 18:58:28 25° 265° (W) 19:01:41 145.860 - 145.880
CUTE 1.7 + AOD 2 17 Oct 19:01:48 19:06:02 78° 74° (ENE) 19:10:16 437.475
Oscar 11 17 Oct 19:06:28 19:08:27 13° 58° (ENE) 19:10:26 .
HO-68 17 Oct 19:07:43 19:14:54 84° 254° (WSW) 19:22:09 435.675
XW-2B 17 Oct 19:09:06 19:11:54 19° 268° (W) 19:14:42 145.730 - 145.750
NUDT-PHONESAT 17 Oct 19:10:25 19:13:29 24° 266° (W) 19:16:34 437.300
SEEDS 17 Oct 19:15:54 19:20:04 69° 73° (ENE) 19:24:14 437.485
CUTE-I 17 Oct 19:16:18 19:20:56 30° 266° (W) 19:25:37 437.470
CUBESAT XI-V 17 Oct 19:19:56 19:21:12 11° 305° (NW) 19:22:28 437.345
YUBILEINY 17 Oct 19:21:51 19:28:39 24° 58° (ENE) 19:35:26 435.215
CUBEBUG 2 17 Oct 19:25:13 19:29:52 81° 74° (ENE) 19:34:39 437.445
KKS-1 17 Oct 19:31:59 19:35:23 22° 298° (WNW) 19:38:46 437.445
XW-2C 17 Oct 19:34:09 19:35:12 11° 272° (W) 19:36:15 145.795 - 145.815
AO-73 17 Oct 19:36:58 19:41:05 34° 67° (ENE) 19:45:13 145.935
AAUSAT CUBESAT 2 17 Oct 19:50:34 19:54:39 74° 75° (ENE) 19:58:46 437.432
ZACube-1 17 Oct 19:56:23 20:00:52 57° 72° (ENE) 20:05:24 437.345
XW-2A 17 Oct 20:04:22 20:07:42 48° 260° (W) 20:11:03 145.665 - 145.685
BEESAT 2 17 Oct 20:10:23 20:11:52 12° 22° (NNE) 20:13:19 435.950
UWE-3 17 Oct 20:10:50 20:15:26 62° 260° (W) 20:20:06 435.000/436.395/437.385
STARS 17 Oct 20:14:55 20:18:00 19° 300° (WNW) 20:21:07 437.465
DELFI C3 17 Oct 20:17:57 20:20:02 14° 61° (ENE) 20:22:08 145.870
STRAND 1 17 Oct 20:20:50 20:25:58 61° 101° (ESE) 20:31:04 437.568
Max Valier Satellite 17 Oct 20:22:13 20:23:13 11° 59° (ENE) 20:24:13 145.860
BEESAT 3 17 Oct 20:34:32 20:37:59 27° 39° (NE) 20:41:22 437.485
Oscar 11 17 Oct 20:39:36 20:43:57 86° 256° (WSW) 20:48:19 .
CUTE 1.7 + AOD 2 17 Oct 20:40:53 20:42:24 12° 273° (W) 20:43:55 437.475
FO-29 17 Oct 20:53:53 20:59:39 30° 93° (E) 21:05:56 435.910
SEEDS 17 Oct 20:54:17 20:56:13 13° 272° (W) 20:58:09 437.485
HO-68 17 Oct 20:59:04 21:03:41 18° 273° (W) 21:08:20 435.675
CUBEBUG 2 17 Oct 21:04:46 21:07:06 14° 274° (W) 21:09:26 437.445
AO-85 17 Oct 21:12:06 21:15:34 22° 35° (NE) 21:19:13 145.980
AO-73 17 Oct 21:13:16 21:17:18 30° 265° (W) 21:21:22 145.935
YUBILEINY 17 Oct 21:17:57 21:26:48 89° 79° (ENE) 21:35:39 435.215
AAUSAT CUBESAT 2 17 Oct 21:29:07 21:30:36 12° 272° (W) 21:32:07 437.432
ZACube-1 17 Oct 21:34:18 21:37:29 18° 270° (W) 21:40:42 437.345
BEESAT 2 17 Oct 21:46:50 21:50:41 39° 44° (NE) 21:54:29 435.950
DELFI C3 17 Oct 21:50:27 21:54:19 63° 259° (W) 21:58:13 145.870
EO-88 17 Oct 21:50:48 21:54:26 72° 75° (ENE) 21:58:06 145.990 - 145.960
O/OREOS (USA 219) 17 Oct 21:51:49 21:56:21 74° 113° (ESE) 22:00:57 437.305
Max Valier Satellite 17 Oct 21:52:43 21:56:28 80° 257° (WSW) 22:00:13 145.860
STRAND 1 17 Oct 22:00:46 22:04:44 23° 300° (WNW) 22:08:41 437.568
ESTCUBE 1 17 Oct 22:11:30 22:14:34 18° 60° (ENE) 22:17:37 437.505/2401.250
BEESAT 3 17 Oct 22:11:53 22:15:42 45° 239° (WSW) 22:19:27 437.485
UNISAT 6 17 Oct 22:27:12 22:31:40 43° 98° (E) 22:36:00 437.425
FO-29 17 Oct 22:38:33 22:45:01 63° 290° (WNW) 22:52:14 435.910
TIGRISAT 17 Oct 22:42:53 22:47:30 56° 100° (E) 22:51:59 435.000
LO-87 17 Oct 22:51:19 22:54:47 49° 72° (ENE) 22:58:18 145.935 - 145.965
AO-85 17 Oct 22:51:57 22:56:25 79° 234° (SW) 23:01:16 145.980
PRISM 17 Oct 22:58:30 23:02:21 37° 98° (E) 23:06:12 437.425
YUBILEINY 17 Oct 23:16:08 23:22:26 23° 283° (WNW) 23:28:46 435.215
BEESAT 2 17 Oct 23:24:48 23:28:17 28° 243° (WSW) 23:31:43 435.950
SPROUT 17 Oct 23:31:44 23:35:21 27° 65° (ENE) 23:39:01 437.525
O/OREOS (USA 219) 17 Oct 23:33:06 23:36:19 18° 314° (NW) 23:39:33 437.305
ESTCUBE 1 17 Oct 23:46:29 23:50:56 61° 258° (WSW) 23:55:24 437.505/2401.250
VELOX 1 17 Oct 23:51:05 23:54:57 31° 66° (ENE) 23:58:51 145.980
UNISAT 6 18 Oct 00:04:18 00:08:09 26° 296° (WNW) 00:11:55 437.425
AIST 2D 18 Oct 00:04:33 00:07:59 54° 100° (E) 00:11:23 435.315
EO-79 18 Oct 00:05:13 00:08:34 22° 93° (E) 00:11:53 145.935-145.965
POLYITAN 1 18 Oct 00:08:54 00:12:24 24° 93° (E) 00:15:50 437.675
RS-15 18 Oct 00:13:48 00:23:42 30° 102° (ESE) 00:33:34 29.354- 29.394
TIGRISAT 18 Oct 00:20:21 00:23:47 21° 299° (WNW) 00:27:10 435.000
50 SAT 18 Oct 00:22:36 00:24:39 16° 64° (ENE) 00:26:43 437.505
FO-29 18 Oct 00:25:33 00:29:03 15° 309° (NW) 00:32:44 435.910
LO-87 18 Oct 00:26:37 00:28:29 14° 270° (W) 00:30:22 145.935 - 145.965
QB50P2 18 Oct 00:28:33 00:32:37 40° 98° (E) 00:36:38 145.880/145.840
PRISM 18 Oct 00:34:09 00:37:27 24° 296° (WNW) 00:40:44 437.425
AO-85 18 Oct 00:34:25 00:36:13 12° 250° (WSW) 00:38:04 145.980
NANOSAT C BR1 18 Oct 00:35:14 00:39:15 38° 98° (E) 00:43:12 145.865
DUCHIFAT 1 18 Oct 00:47:47 00:51:54 45° 99° (E) 00:55:57 145.980
SPROUT 18 Oct 01:07:15 01:11:08 34° 263° (W) 01:15:05 437.525
DX 1 18 Oct 01:07:20 01:11:29 49° 70° (ENE) 01:15:41 434.975-435.025
BUGSAT 1 18 Oct 01:08:53 01:12:14 22° 93° (E) 01:15:31 437.445
VELOX 1 18 Oct 01:27:30 01:31:23 30° 264° (W) 01:35:17 145.980
ITUPSAT 1 18 Oct 01:32:04 01:33:44 12° 53° (NE) 01:35:25 437.325
MOZHAYETS 4 18 Oct 01:33:06 01:34:44 12° 55° (NE) 01:36:22
UKube-1 18 Oct 01:38:03 01:42:18 66° 72° (ENE) 01:46:35 .
AIST 2D 18 Oct 01:39:09 01:40:44 13° 298° (WNW) 01:42:19 435.315
EO-79 18 Oct 01:40:28 01:44:30 41° 291° (WNW) 01:48:30 145.935-145.965
POLYITAN 1 18 Oct 01:44:19 01:48:17 38° 292° (WNW) 01:52:14 437.675
BEESAT 18 Oct 01:48:19 01:51:13 16° 57° (ENE) 01:54:08 436.000
50 SAT 18 Oct 01:53:41 01:56:44 35° 262° (W) 01:59:47 437.505
Oscar 19 18 Oct 01:56:44 02:01:25 34° 96° (E) 02:06:03 437.125/150
Gurwin Techsat 1B 18 Oct 02:02:50 02:07:26 29° 94° (E) 02:11:59 435.225
QB50P2 18 Oct 02:04:46 02:08:11 23° 296° (WNW) 02:11:35 145.880/145.840
NANOSAT C BR1 18 Oct 02:11:18 02:14:45 24° 296° (WNW) 02:18:11 145.865
RS-15 18 Oct 02:22:21 02:34:44 89° 128° (SE) 02:47:03 29.354- 29.394
DUCHIFAT 1 18 Oct 02:24:04 02:27:16 21° 297° (WNW) 02:30:27 145.980
M-CUBED/EXP-1 PRIME 18 Oct 02:26:25 02:29:40 38° 105° (ESE) 02:33:06 437.505
BUGSAT 1 18 Oct 02:43:44 02:47:44 41° 291° (WNW) 02:51:42 437.445
DX 1 18 Oct 02:44:51 02:47:57 19° 268° (W) 02:51:05 434.975-435.025
ITUPSAT 1 18 Oct 03:05:55 03:10:42 71° 72° (ENE) 03:15:31 437.325
MOZHAYETS 4 18 Oct 03:06:27 03:11:04 76° 75° (ENE) 03:15:43
CUBESAT XI-V 18 Oct 03:10:34 03:14:08 23° 63° (ENE) 03:17:43 437.345
UKube-1 18 Oct 03:16:25 03:18:46 14° 270° (W) 03:21:07 .
KKS-1 18 Oct 03:23:35 03:24:35 11° 54° (NE) 03:25:37 437.445
BEESAT 18 Oct 03:23:35 03:28:23 80° 255° (WSW) 03:33:13 436.000
AO-7 18 Oct 03:32:55 03:40:04 31° 94° (E) 03:47:10 .
Oscar 19 18 Oct 03:36:04 03:40:45 36° 295° (WNW) 03:45:23 437.125/150
Gurwin Techsat 1B 18 Oct 03:42:29 03:47:34 46° 292° (WNW) 03:52:37 435.225
M-CUBED/EXP-1 PRIME 18 Oct 04:01:30 04:03:55 18° 301° (WNW) 04:06:26 437.505
ITAMSAT 1 18 Oct 04:01:43 04:06:26 33° 96° (E) 04:11:06 435.822/435.867
STARS 18 Oct 04:04:36 04:06:07 12° 55° (NE) 04:07:40 437.465
NO-84 18 Oct 04:32:13 04:36:09 36° 136° (SE) 04:40:00 435.350 FM
RS-15 18 Oct 04:37:13 04:48:52 44° 335° (NNW) 05:00:18 29.354- 29.394
ITUPSAT 1 18 Oct 04:46:05 04:49:01 16° 270° (W) 04:52:00 437.325
MOZHAYETS 4 18 Oct 04:46:20 04:48:47 14° 272° (W) 04:51:14
CUBESAT XI-V 18 Oct 04:46:43 04:51:13 49° 261° (W) 04:55:43 437.345
KKS-1 18 Oct 04:55:55 05:00:20 72° 74° (ENE) 05:04:48 437.445
BEESAT 18 Oct 05:05:59 05:06:57 11° 274° (W) 05:07:54 436.000
AO-7 18 Oct 05:25:14 05:33:29 71° 295° (WNW) 05:41:43 .
STARS 18 Oct 05:37:20 05:41:43 81° 75° (ENE) 05:46:09 437.465
ITAMSAT 1 18 Oct 05:41:06 05:45:58 40° 294° (WNW) 05:50:48 435.822/435.867
CUTE-I 18 Oct 05:50:44 05:53:00 13° 86° (E) 05:55:15 437.470
DOVE 4 18 Oct 06:02:07 06:06:57 63° 101° (E) 06:12:02 437.250
STRAND 1 18 Oct 06:03:01 06:06:44 21° 58° (ENE) 06:10:28 437.568
NO-84 18 Oct 06:09:17 06:13:30 58° 335° (NNW) 06:17:31 435.350 FM
LilacSat-2 18 Oct 06:12:41 06:15:29 19° 92° (E) 06:18:15 437.200
XW-2F 18 Oct 06:14:06 06:16:41 18° 92° (E) 06:19:14 145.980 - 146.000
KAITUO 1B 18 Oct 06:17:48 06:20:02 15° 91° (E) 06:22:16 145.475/437.950
O/OREOS (USA 219) 18 Oct 06:19:10 06:23:27 36° 55° (NE) 06:27:42 437.305
XW-2D 18 Oct 06:23:39 06:26:46 24° 94° (E) 06:29:51 145.860 - 145.880
HO-68 18 Oct 06:33:14 06:37:16 15° 85° (E) 06:41:16 435.675
KKS-1 18 Oct 06:35:08 06:37:24 14° 271° (W) 06:39:41 437.445
NUDT-PHONESAT 18 Oct 06:36:27 06:39:27 23° 94° (E) 06:42:25 437.300
XW-2B 18 Oct 06:36:47 06:40:12 32° 97° (E) 06:43:35 145.730 - 145.750
CUTE 1.7 + AOD 2 18 Oct 06:45:35 06:46:22 10° 86° (E) 06:47:08 437.475
RS-15 18 Oct 06:54:06 07:05:13 37° 9° (N) 07:15:54 29.354- 29.394
XW-2C 18 Oct 06:59:39 07:03:23 61° 102° (ESE) 07:07:05 145.795 - 145.815
FO-29 18 Oct 07:13:03 07:16:15 16° 52° (NE) 07:19:34 435.910
CUBEBUG 2 18 Oct 07:13:52 07:16:28 15° 87° (E) 07:19:01 437.445
STARS 18 Oct 07:16:53 07:18:38 12° 272° (W) 07:20:24 437.465
AO-7 18 Oct 07:19:07 07:24:55 22° 317° (NW) 07:30:43 .
CUTE-I 18 Oct 07:28:29 07:33:53 82° 105° (ESE) 07:39:16 437.470
STRAND 1 18 Oct 07:40:19 07:45:25 68° 258° (WSW) 07:50:35 437.568
DOVE 4 18 Oct 07:40:43 07:44:14 21° 298° (WNW) 07:47:54 437.250
LilacSat-2 18 Oct 07:46:24 07:49:53 36° 290° (WNW) 07:53:21 437.200
SO-50 18 Oct 07:47:23 07:51:35 41° 120° (ESE) 07:55:50 436.795
XW-2F 18 Oct 07:47:28 07:50:58 39° 290° (WNW) 07:54:27 145.980 - 146.000
NO-84 18 Oct 07:47:45 07:51:29 31° 355° (N) 07:55:00 435.350 FM
KAITUO 1B 18 Oct 07:50:44 07:54:16 45° 289° (WNW) 07:57:46 145.475/437.950
UWE-3 18 Oct 07:57:26 08:01:00 22° 91° (E) 08:04:29 435.000/436.395/437.385
XW-2D 18 Oct 07:57:41 08:00:56 28° 292° (WNW) 08:04:11 145.860 - 145.880
O/OREOS (USA 219) 18 Oct 07:58:44 08:02:47 31° 255° (WSW) 08:06:49 437.305
NUDT-PHONESAT 18 Oct 08:10:07 08:13:19 29° 292° (WNW) 08:16:30 437.300
XW-2B 18 Oct 08:11:17 08:14:14 22° 294° (WNW) 08:17:09 145.730 - 145.750
TIGRISAT 18 Oct 08:11:34 08:13:11 12° 55° (NE) 08:14:47 435.000
CUTE 1.7 + AOD 2 18 Oct 08:18:34 08:22:48 85° 284° (WNW) 08:27:00 437.475
HO-68 18 Oct 08:18:57 08:26:12 75° 106° (ESE) 08:33:24 435.675
Oscar 11 18 Oct 08:24:34 08:26:49 14° 88° (E) 08:29:03 .
YUBILEINY 18 Oct 08:29:53 08:35:58 22° 76° (ENE) 08:42:03 435.215
SEEDS 18 Oct 08:31:23 08:35:34 83° 103° (ESE) 08:39:44 437.485
XW-2C 18 Oct 08:35:15 08:37:06 13° 299° (WNW) 08:38:56 145.795 - 145.815
CUBEBUG 2 18 Oct 08:48:55 08:53:38 74° 286° (WNW) 08:58:12 437.445
XW-2A 18 Oct 08:54:47 08:58:10 80° 284° (WNW) 09:01:29 145.665 - 145.685
FO-29 18 Oct 08:55:16 09:00:29 90° 284° (WNW) 09:06:08 435.910
AO-73 18 Oct 08:57:02 09:01:14 41° 97° (E) 09:05:18 145.935
AAUSAT CUBESAT 2 18 Oct 09:04:04 09:08:13 85° 104° (ESE) 09:12:20 437.432
RS-15 18 Oct 09:08:32 09:20:36 63° 41° (NE) 09:31:58 29.354- 29.394
CUTE-I 18 Oct 09:09:42 09:13:18 19° 304° (WNW) 09:16:54 437.470
ZACube-1 18 Oct 09:17:11 09:21:39 74° 102° (ESE) 09:25:58 437.345
DELFI C3 18 Oct 09:25:00 09:26:49 13° 89° (E) 09:28:37 145.870
PCSat 18 Oct 09:25:36 09:30:57 64° 119° (ESE) 09:36:20 145.827
NO-84 18 Oct 09:25:49 09:29:36 39° 16° (NNE) 09:33:06 435.350 FM
SO-50 18 Oct 09:28:02 09:32:08 34° 320° (NW) 09:36:17 436.795
UNISAT 6 18 Oct 09:28:52 09:33:25 57° 71° (ENE) 09:38:03 437.425
UWE-3 18 Oct 09:33:18 09:37:41 45° 290° (WNW) 09:41:56 435.000/436.395/437.385
TIGRISAT 18 Oct 09:44:23 09:49:01 73° 73° (ENE) 09:53:43 435.000
PRISM 18 Oct 09:50:52 09:54:41 43° 69° (ENE) 09:58:33 437.425
CUTE 1.7 + AOD 2 18 Oct 09:56:42 09:57:56 11° 303° (WNW) 09:59:10 437.475
Oscar 11 18 Oct 09:59:07 10:03:25 68° 287° (WNW) 10:07:40 .
HO-68 18 Oct 10:07:27 10:13:19 28° 306° (NW) 10:19:11 435.675
SEEDS 18 Oct 10:08:52 10:10:38 12° 302° (WNW) 10:12:23 437.485
YUBILEINY 18 Oct 10:22:49 10:31:32 89° 88° (E) 10:40:19 435.215
CUBEBUG 2 18 Oct 10:27:47 10:29:22 12° 305° (NW) 10:30:57 437.445
AO-73 18 Oct 10:33:42 10:37:14 24° 296° (WNW) 10:40:43 145.935
nSIGHT-1 18 Oct 10:34:41 10:35:24 11° 134° (SE) 10:36:06 .
AAUSAT CUBESAT 2 18 Oct 10:41:26 10:43:02 12° 302° (WNW) 10:44:38 437.432
AIST 2D 18 Oct 10:41:57 10:45:09 33° 70° (ENE) 10:48:21 435.315
FO-29 18 Oct 10:44:17 10:46:38 13° 276° (W) 10:49:03 435.910
EO-88 18 Oct 10:49:14 10:52:49 55° 100° (E) 10:56:23 145.990 - 145.960
Max Valier Satellite 18 Oct 10:52:38 10:56:20 85° 107° (ESE) 11:00:00 145.860
ZACube-1 18 Oct 10:54:47 10:57:20 15° 301° (WNW) 10:59:51 437.345
DELFI C3 18 Oct 10:58:03 11:01:59 63° 286° (WNW) 11:05:54 145.870
ISS 18 Oct 10:59:04 11:01:06 16° 137° (SE) 11:03:09 437.550
EO-79 18 Oct 11:00:47 11:04:21 26° 65° (ENE) 11:07:56 145.935-145.965
NO-84 18 Oct 11:03:22 11:07:11 60° 217° (SW) 11:10:38 435.350 FM
POLYITAN 1 18 Oct 11:04:34 11:08:16 29° 66° (ENE) 11:11:58 437.675
UNISAT 6 18 Oct 11:07:10 11:10:28 19° 270° (W) 11:13:49 437.425
PCSat 18 Oct 11:10:03 11:14:46 29° 320° (NW) 11:19:30 145.827
SO-50 18 Oct 11:11:58 11:13:56 13° 344° (NNW) 11:15:54 436.795
RS-15 18 Oct 11:21:37 11:32:53 52° 247° (WSW) 11:43:37 29.354- 29.394
TIGRISAT 18 Oct 11:23:36 11:26:14 15° 272° (W) 11:28:53 435.000
QB50P2 18 Oct 11:24:08 11:28:14 48° 70° (ENE) 11:32:22 145.880/145.840
PRISM 18 Oct 11:27:13 11:30:10 19° 267° (W) 11:33:08 437.425
NANOSAT C BR1 18 Oct 11:30:16 11:34:19 45° 70° (ENE) 11:38:25 145.865
ESTCUBE 1 18 Oct 11:35:42 11:39:10 21° 92° (E) 11:42:35 437.505/2401.250
Oscar 19 18 Oct 11:41:19 11:43:37 13° 53° (NE) 11:45:55 437.125/150
DUCHIFAT 1 18 Oct 11:42:29 11:46:37 53° 71° (ENE) 11:50:47 145.980
LO-87 18 Oct 11:47:43 11:51:08 36° 98° (E) 11:54:30 145.935 - 145.965
Gurwin Techsat 1B 18 Oct 11:51:37 11:53:35 12° 51° (NE) 11:55:33 435.225
BUGSAT 1 18 Oct 12:01:46 12:05:12 25° 65° (ENE) 12:08:41 437.445
BEESAT 3 18 Oct 12:06:51 12:08:06 11° 109° (ESE) 12:09:21 437.485
nSIGHT-1 18 Oct 12:07:58 12:11:06 57° 151° (SSE) 12:14:15 .
AIST 2D 18 Oct 12:15:55 12:18:26 18° 267° (W) 12:20:56 435.315
YUBILEINY 18 Oct 12:22:52 12:29:38 24° 302° (WNW) 12:36:28 435.215
EO-88 18 Oct 12:24:10 12:26:03 14° 298° (WNW) 12:27:55 145.990 - 145.960
ISS 18 Oct 12:33:54 12:37:09 78° 155° (SSE) 12:40:25 437.550
EO-79 18 Oct 12:36:04 12:39:59 35° 263° (W) 12:43:56 145.935-145.965
POLYITAN 1 18 Oct 12:40:07 12:43:58 32° 264° (W) 12:47:52 437.675
AO-7 18 Oct 12:47:21 12:52:28 18° 39° (NE) 12:57:35 .
SPROUT 18 Oct 12:48:49 12:52:38 30° 95° (E) 12:56:26 437.525
SO-50 18 Oct 12:55:20 12:56:27 11° 9° (N) 12:57:32 436.795
PCSat 18 Oct 12:58:01 13:00:03 12° 345° (NNW) 13:02:04 145.827
QB50P2 18 Oct 13:01:12 13:04:17 19° 269° (W) 13:07:23 145.880/145.840
NANOSAT C BR1 18 Oct 13:07:05 13:10:15 20° 268° (W) 13:13:26 145.865
ESTCUBE 1 18 Oct 13:11:54 13:16:11 46° 290° (WNW) 13:20:28 437.505/2401.250
VELOX 1 18 Oct 13:13:04 13:17:12 37° 97° (E) 13:21:19 145.980
AO-85 18 Oct 13:13:05 13:14:10 11° 109° (ESE) 13:15:13 145.980
M-CUBED/EXP-1 PRIME 18 Oct 13:15:41 13:19:05 79° 251° (WSW) 13:22:24 437.505
Oscar 19 18 Oct 13:16:55 13:22:04 72° 72° (ENE) 13:27:13 437.125/150
BEESAT 2 18 Oct 13:19:14 13:22:09 19° 114° (ESE) 13:25:05 435.950
DUCHIFAT 1 18 Oct 13:19:46 13:22:36 17° 269° (W) 13:25:27 145.980
LO-87 18 Oct 13:21:40 13:24:18 19° 295° (WNW) 13:26:55 145.935 - 145.965
Gurwin Techsat 1B 18 Oct 13:27:17 13:32:32 64° 71° (ENE) 13:37:47 435.225
BUGSAT 1 18 Oct 13:36:32 13:40:23 36° 263° (W) 13:44:20 437.445
RS-15 18 Oct 13:39:58 13:42:01 11° 271° (W) 13:44:03 29.354- 29.394
BEESAT 3 18 Oct 13:40:58 13:45:00 90° 48° (NE) 13:49:03 437.485
nSIGHT-1 18 Oct 13:44:20 13:47:28 48° 351° (N) 13:50:35 .
ITAMSAT 1 18 Oct 13:47:18 13:49:40 13° 52° (NE) 13:52:02 435.822/435.867
ISS 18 Oct 14:10:38 14:13:48 45° 355° (N) 14:16:58 437.550
SPROUT 18 Oct 14:24:42 14:28:30 31° 294° (WNW) 14:32:16 437.525
DX 1 18 Oct 14:27:34 14:31:53 55° 101° (ESE) 14:36:11 434.975-435.025
